Simultaneous Nadir Overpasses (SNOs) Predictions

Prediction of SNOs between GOES-17 and LANDSAT-8 Satellite Orbit:

Table of predicted SNOs for the next 14.0 days since TLE Epoch: 7/6/2019
Index Date Time (GOES-17) GOES-17 Lat,Lon LANDSAT-8 Lat,Lon Distance(km) Time Diff (sec)
1 07/07/2019 07:16:46 0.01,-137.20 0.15,-136.48 80.86 80
2 07/09/2019 07:04:35 0.02,-137.19 0.77,-133.52 416.09 80
3 07/09/2019 19:25:51 -0.01,-137.18 0.31,-138.68 170.59 80
4 07/11/2019 19:16:20 -0.01,-137.17 -0.31,-135.72 164.22 80
5 07/12/2019 07:37:43 0.01,-137.17 -0.81,-140.91 426.04 80
6 07/13/2019 19:04:09 -0.02,-137.15 -0.94,-132.76 498.37 80
7 07/14/2019 07:25:32 0.01,-137.15 -0.18,-137.95 92.12 80
8 07/16/2019 07:10:41 0.02,-137.12 0.45,-134.99 241.24 80
9 07/16/2019 19:31:57 -0.02,-137.11 0.63,-140.15 346.33 80
10 07/18/2019 19:19:46 -0.02,-137.08 0.00,-137.19 13.52 80




NCC Satellite Simultaneous Nadir Overpasses (SNOs) Prediction Service
